Weather History for KVSH - April, 2013

Change the Weather History Date:

Sunday, April 7, 2013

  Actual Average (KMAI) Record (KMAI)
Temperature  
Mean Temperature 70 °F 64 °F  
Max Temperature 78 °F 77 °F 88 °F (1999)
Min Temperature 62 °F 52 °F 39 °F (2007)
Degree Days  
Heating Degree Days 0    
Month to date heating degree days  
Since 1 July heating degree days  
Cooling Degree Days 5    
Month to date cooling degree days  
Year to date cooling degree days  
Growing Degree Days 20 (Base 50)    
Moisture  
Dew Point 57 °F    
Average Humidity 67    
Maximum Humidity 83    
Minimum Humidity 44    
Precipitation  
Precipitation 0.00 in 0.15 in 2.48 in (2014)
Month to date precipitation 1.17  
Year to date precipitation 16.69  
Sea Level Pressure  
Sea Level Pressure 30.06 in    
Wind  
Wind Speed 5 mph (SE)    
Max Wind Speed 12 mph    
Max Gust Speed 18 mph    
Visibility 10 miles    
Events      
T = Trace of Precipitation, MM = Missing Value Source: NWS Daily Summary

Daily Weather History Graph

Daily Weather History Graph

Search for Another Location

Airport or City:

Trip Planner

Search our weather history database for the weather conditions in past years. The results will help you decide how hot, cold, wet, or windy it might be!

Date:

Astronomy

Apr. 07, 2013 Rise Set
Actual Time 6:23 AM CDT 7:05 PM CDT
Civil Twilight 5:59 AM CDT 7:29 PM CDT
Nautical Twilight 5:30 AM CDT 7:58 PM CDT
Astronomical Twilight 5:01 AM CDT 8:28 PM CDT
Moon 4:30 AM CDT (4/7) 4:45 PM CDT (4/7)
Length of Visible Light 13h 30m
Length of Day
12h 41m
Waning Crescent, 8% of the Moon is Illuminated
Apr 7
Waning Crescent
Apr 10
New
Apr 18
First Quarter
Apr 25
Full
May 2
Last Quarter

Hourly Weather History & Observations

Time (CDT) Temp. Dew Point Humidity Pressure Visibility Wind Dir Wind Speed Gust Speed Precip Events Conditions
12:15 AM - - N/A% 30.08 in 10.0 mi SSE 4.6 mph - N/A   Partly Cloudy
12:35 AM 62.6 °F 55.4 °F 77% 30.08 in 10.0 mi South 4.6 mph - N/A   Clear
12:55 AM 62.6 °F 55.4 °F 77% 30.08 in 10.0 mi Calm Calm - N/A   Clear
1:15 AM 62.6 °F 53.6 °F 72% 30.08 in 10.0 mi South 4.6 mph - N/A   Clear
1:35 AM - - N/A% 30.07 in 10.0 mi Calm Calm - N/A   Clear
1:55 AM - - N/A% 30.06 in 10.0 mi Calm Calm - N/A   Clear
2:15 AM 62.6 °F 53.6 °F 72% 30.06 in 10.0 mi East 3.5 mph - N/A   Clear
2:35 AM 62.6 °F 53.6 °F 72% 30.06 in 10.0 mi Calm Calm - N/A   Clear
2:55 AM 62.6 °F 53.6 °F 72% 30.05 in 10.0 mi ESE 3.5 mph - N/A   Clear
3:15 AM 62.6 °F 53.6 °F 72% 30.05 in 10.0 mi East 4.6 mph - N/A   Clear
3:35 AM 62.6 °F 53.6 °F 72% 30.05 in 10.0 mi ESE 3.5 mph - N/A   Clear
3:55 AM - - N/A% 30.04 in 10.0 mi SE 4.6 mph - N/A   Clear
4:15 AM 62.6 °F 53.6 °F 72% 30.05 in 10.0 mi SE 4.6 mph - N/A   Clear
4:35 AM 62.6 °F 53.6 °F 72% 30.05 in 10.0 mi SE 5.8 mph - N/A   Clear
4:55 AM 62.6 °F 53.6 °F 72% 30.05 in 10.0 mi ESE 5.8 mph - N/A   Clear
5:15 AM 62.6 °F 53.6 °F 72% 30.06 in 10.0 mi ESE 4.6 mph - N/A   Clear
5:35 AM 62.6 °F 53.6 °F 72% 30.06 in 10.0 mi SE 6.9 mph - N/A   Clear
5:55 AM 62.6 °F 53.6 °F 72% 30.06 in 10.0 mi SE 4.6 mph - N/A   Clear
6:15 AM 62.6 °F 53.6 °F 72% 30.07 in 10.0 mi ENE 5.8 mph - N/A   Clear
6:35 AM 62.6 °F 55.4 °F 77% 30.07 in 10.0 mi East 4.6 mph - N/A   Clear
6:55 AM - - N/A% 30.07 in 10.0 mi ESE 4.6 mph - N/A   Clear
7:15 AM - - N/A% 30.08 in 10.0 mi ESE 4.6 mph - N/A   Clear
7:35 AM 62.6 °F 55.4 °F 77% 30.09 in 10.0 mi ESE 4.6 mph - N/A   Clear
7:55 AM 62.6 °F 55.4 °F 77% 30.10 in 10.0 mi ESE 3.5 mph - N/A   Unknown
8:15 AM 64.4 °F 55.4 °F 73% 30.10 in 10.0 mi ESE 4.6 mph - N/A   Clear
8:35 AM 66.2 °F 55.4 °F 68% 30.11 in 10.0 mi SE 6.9 mph - N/A   Clear
8:55 AM 66.2 °F 55.4 °F 68% 30.11 in 10.0 mi Calm Calm - N/A   Partly Cloudy
9:15 AM 68.0 °F 55.4 °F 64% 30.11 in 10.0 mi ESE 4.6 mph - N/A   Clear
9:35 AM 69.8 °F 55.4 °F 60% 30.11 in 10.0 mi SE 5.8 mph - N/A   Scattered Clouds
9:55 AM - - N/A% 30.11 in 10.0 mi SSE 6.9 mph - N/A   Mostly Cloudy
10:15 AM - - N/A% 30.11 in 10.0 mi SE 5.8 mph - N/A   Overcast
10:35 AM 71.6 °F 55.4 °F 57% 30.11 in 10.0 mi SE 5.8 mph - N/A   Mostly Cloudy
10:55 AM - - N/A% 30.11 in 10.0 mi SSE 9.2 mph - N/A   Mostly Cloudy
11:15 AM - - N/A% 30.11 in 10.0 mi South 10.4 mph - N/A   Overcast
11:35 AM - - N/A% 30.11 in 10.0 mi SSE 6.9 mph - N/A   Overcast
11:55 AM - - N/A% 30.10 in 10.0 mi SSE 6.9 mph - N/A   Overcast
12:15 PM - - N/A% 30.10 in 10.0 mi SSE 9.2 mph - N/A   Mostly Cloudy
12:35 PM - - N/A% 30.10 in 10.0 mi South 8.1 mph - N/A   Overcast
12:55 PM - - N/A% 30.09 in 10.0 mi SSE 5.8 mph - N/A   Overcast
1:15 PM - - N/A% 30.08 in 10.0 mi SSE 6.9 mph - N/A   Overcast
1:35 PM - - N/A% 30.08 in 10.0 mi SSE 6.9 mph - N/A   Overcast
1:55 PM - - N/A% 30.07 in 10.0 mi South 4.6 mph - N/A   Overcast
2:15 PM - - N/A% 30.06 in 10.0 mi SSE 6.9 mph - N/A   Overcast
2:35 PM - - N/A% 30.05 in 10.0 mi SSE 9.2 mph - N/A   Mostly Cloudy
2:55 PM 77.0 °F 55.4 °F 47% 30.06 in 10.0 mi SSE 9.2 mph - N/A   Mostly Cloudy
3:15 PM 77.0 °F 55.4 °F 47% 30.05 in 10.0 mi SSE 6.9 mph - N/A   Overcast
3:35 PM 78.8 °F 55.4 °F 44% 30.04 in 10.0 mi SSE 11.5 mph - N/A   Mostly Cloudy
3:55 PM 75.2 °F 55.4 °F 50% 30.04 in 10.0 mi SSE 8.1 mph - N/A   Mostly Cloudy
4:15 PM 75.2 °F 55.4 °F 50% 30.03 in 10.0 mi SSE 10.4 mph 16.1 mph N/A   Overcast
4:35 PM 75.2 °F 57.2 °F 53% 30.03 in 10.0 mi SSE 10.4 mph 18.4 mph N/A   Unknown
4:55 PM 75.2 °F 57.2 °F 53% 30.03 in 10.0 mi South 10.4 mph - N/A   Mostly Cloudy
5:15 PM 75.2 °F 57.2 °F 53% 30.03 in 10.0 mi SSE 6.9 mph - N/A   Mostly Cloudy
5:35 PM 75.2 °F 57.2 °F 53% 30.03 in 10.0 mi SSE 11.5 mph - N/A   Mostly Cloudy
5:55 PM 75.2 °F 57.2 °F 53% 30.03 in 10.0 mi SE 4.6 mph - N/A   Scattered Clouds
6:15 PM 73.4 °F 57.2 °F 57% 30.02 in 10.0 mi SE 8.1 mph - N/A   Scattered Clouds
6:35 PM 73.4 °F 57.2 °F 57% 30.02 in 10.0 mi SSE 9.2 mph - N/A   Scattered Clouds
6:55 PM 71.6 °F 59.0 °F 64% 30.02 in 10.0 mi South 5.8 mph - N/A   Partly Cloudy
7:15 PM 71.6 °F 59.0 °F 64% 30.02 in 10.0 mi Calm Calm - N/A   Clear
7:35 PM 71.6 °F 59.0 °F 64% 30.02 in 10.0 mi SE 6.9 mph - N/A   Mostly Cloudy
7:55 PM 71.6 °F 60.8 °F 69% 30.01 in 10.0 mi Calm Calm - N/A   Mostly Cloudy
8:15 PM 69.8 °F 60.8 °F 73% 30.02 in 10.0 mi South 6.9 mph - N/A   Scattered Clouds
8:35 PM 69.8 °F 60.8 °F 73% 30.02 in 10.0 mi SSE 6.9 mph - N/A   Partly Cloudy
8:55 PM 69.8 °F 60.8 °F 73% 30.02 in 10.0 mi South 6.9 mph - N/A   Clear
9:15 PM 69.8 °F 60.8 °F 73% 30.03 in 10.0 mi South 8.1 mph - N/A   Clear
9:35 PM 69.8 °F 60.8 °F 73% 30.03 in 10.0 mi South 8.1 mph - N/A   Clear
9:55 PM 68.0 °F 60.8 °F 78% 30.03 in 10.0 mi South 6.9 mph - N/A   Clear
10:15 PM 68.0 °F 60.8 °F 78% 30.03 in 10.0 mi Calm Calm - N/A   Clear
10:35 PM - - N/A% 30.02 in 10.0 mi SSE 4.6 mph - N/A   Clear
10:55 PM - - N/A% 30.02 in 10.0 mi SSE 3.5 mph - N/A   Clear
11:15 PM - - N/A% 30.02 in 10.0 mi SSE 3.5 mph - N/A   Clear
11:35 PM 66.2 °F 60.8 °F 83% 30.03 in 10.0 mi SSE 3.5 mph - N/A   Clear
11:55 PM 66.2 °F 60.8 °F 83% 30.02 in 10.0 mi Calm Calm - N/A   Clear